GFSNE_prec_cthk_045.txt.gz
RH
46 45 44 44 49 54 58 61 66 57 46 49 41 43 43 46 46 43 38 36 31 30 34 39 41 40 39 41 40 44 45 41 33 30 32 30 22 18
42 42 43 44 46 48 54 61 69 72 46 40 41 44 44 44 41 37 33 32 34 38 41 41 43 47 45 43 42 43 46 45 35 29 26 29 25 21
43 40 43 43 44 45 50 54 53 53 46 38 37 37 37 36 33 33 35 38 42 47 47 47 48 50 49 49 46 44 47 49 42 30 22 24 26 23
46 43 39 38 39 44 43 40 40 38 36 31 34 36 34 34 37 39 42 47 51 54 58 58 61 62 63 63 61 57 54 51 47 36 24 19 27 27
45 41 37 37 37 36 36 36 37 36 37 40 35 31 35 39 44 50 55 57 60 63 65 66 64 62 60 62 66 68 68 61 53 42 30 19 23 30
49 42 34 35 37 39 38 38 38 38 40 35 31 35 41 46 51 58 63 66 67 68 67 65 64 59 58 58 62 71 76 70 62 52 35 27 24 33
48 40 36 40 43 40 38 41 43 41 36 32 34 41 46 52 60 68 70 69 67 63 61 52 52 55 57 61 64 72 79 81 80 65 51 35 23 31
49 41 42 42 43 40 43 48 44 36 31 32 42 48 53 61 66 71 73 69 61 61 56 54 59 55 60 63 70 81 85 88 90 77 58 39 27 34
52 46 46 48 48 44 47 46 35 34 31 38 45 52 56 62 69 78 78 75 71 64 66 64 69 65 69 69 74 83 89 91 92 86 67 45 30 35
61 52 47 51 47 45 48 39 34 33 31 36 46 49 53 62 81 87 85 77 73 66 74 73 71 72 77 78 84 86 87 89 90 82 65 45 33 41
61 50 47 52 49 47 47 38 32 33 33 36 43 50 58 71 86 91 87 77 73 70 73 83 78 80 80 87 88 91 89 84 84 77 60 42 44 54
59 48 52 54 49 48 46 37 34 33 34 37 40 49 57 70 87 92 90 82 81 80 79 88 92 91 85 86 88 88 92 86 84 75 57 41 58 67
57 54 55 55 50 49 49 40 38 37 38 38 40 45 56 62 79 92 94 88 86 88 90 90 91 93 96 91 86 88 93 91 85 75 51 46 72 76
64 63 62 57 52 50 52 46 43 42 41 41 42 45 51 64 68 86 94 92 91 95 92 93 91 88 95 96 94 94 95 93 81 74 51 52 83 85
68 71 69 64 59 53 56 52 48 47 45 43 42 43 47 57 71 72 91 93 88 96 98 97 92 89 89 94 96 96 96 94 83 69 58 49 81 90
71 76 72 69 67 58 59 57 53 53 50 47 44 42 42 49 60 78 80 93 88 89 96 97 93 90 88 91 94 94 97 94 88 69 52 47 67 88
73 80 78 73 71 65 59 63 57 57 58 55 50 44 40 43 49 67 80 85 94 87 92 93 92 93 91 87 87 91 90 85 89 74 57 49 57 87
76 78 77 76 75 72 64 63 63 62 64 64 57 48 43 41 43 51 75 75 85 93 91 91 92 93 92 90 84 84 88 84 82 72 64 54 49 74
83 84 78 74 73 73 70 65 63 67 69 70 67 57 51 45 42 45 52 80 72 89 93 89 91 95 96 92 91 90 88 91 86 78 74 65 56 51
91 90 84 77 75 75 72 69 66 67 73 76 75 70 62 53 46 43 46 51 80 69 77 92 89 92 98 98 92 88 89 86 81 78 75 69 71 64
96 96 90 84 80 78 77 73 70 67 70 77 78 79 72 64 53 46 44 46 51 77 64 78 97 93 95 99 96 91 88 89 86 81 80 78 71 70
97 98 97 94 87 84 81 79 75 71 69 71 76 81 80 73 62 53 47 45 46 50 69 72 91 99 94 97 96 98 91 88 88 87 83 80 79 75
97 98 98 97 95 95 92 86 81 77 73 70 72 79 81 78 72 61 53 49 46 43 45 63 81 84 98 93 94 96 95 96 91 89 89 85 82 81

GFSNE_prec_cthk_048.txt.gz
RH
53 52 51 52 54 54 58 54 52 51 39 40 44 43 41 41 42 40 39 37 36 32 29 28 31 36 40 43 45 43 44 42 43 42 41 35 28 29
53 51 53 54 55 54 50 51 49 48 42 40 36 36 33 31 31 32 33 31 29 29 31 33 36 41 45 46 46 45 44 41 38 44 43 38 28 29
56 55 56 55 50 47 43 40 42 42 38 31 32 29 29 29 30 28 28 30 33 36 39 41 45 47 46 47 47 47 46 44 42 46 46 41 31 22
61 61 58 55 48 44 38 36 33 35 34 29 30 32 32 27 30 31 34 37 40 46 50 51 50 49 48 50 49 47 47 47 48 44 41 39 32 20
67 66 62 57 51 38 35 37 37 36 37 36 35 31 26 31 33 37 40 43 50 54 54 53 53 55 56 56 55 56 53 53 57 54 49 43 36 25
67 68 65 57 44 37 40 41 38 37 40 40 32 28 30 37 41 45 45 48 53 56 54 57 58 57 56 54 50 50 48 49 58 63 63 52 45 33
66 65 59 51 44 41 43 42 38 40 43 35 32 28 34 41 46 49 50 55 62 60 62 60 58 56 49 45 44 44 45 47 57 61 66 66 56 44
61 57 55 55 51 49 50 46 43 46 41 36 30 31 38 45 48 51 58 67 70 67 65 54 61 52 56 54 51 48 47 53 68 71 71 72 65 50
50 52 57 59 51 49 49 47 48 46 39 35 31 34 38 45 49 57 70 75 77 69 63 56 61 57 62 61 60 59 58 62 72 81 78 77 68 52
51 57 61 59 52 51 51 49 48 44 38 36 35 36 40 47 55 65 76 80 76 71 70 65 71 69 67 65 70 75 75 76 80 80 80 77 70 57
55 61 62 55 53 52 53 49 48 43 39 39 40 39 40 48 55 62 75 81 76 72 75 79 71 71 78 72 77 81 81 82 84 83 79 77 71 59
57 58 56 57 57 54 54 50 48 46 43 42 43 41 41 45 52 59 71 86 85 76 78 79 77 81 74 78 80 81 80 84 90 85 82 81 71 54
61 61 64 63 62 60 57 49 52 51 47 45 45 44 44 44 49 58 63 84 89 84 81 91 85 84 83 84 83 81 81 88 89 89 86 79 62 60
66 68 70 71 68 66 62 56 55 57 52 50 49 47 45 42 44 55 60 74 90 88 84 94 94 89 88 88 89 83 88 97 89 87 85 68 63 74
69 71 72 73 74 71 69 65 59 60 57 55 54 53 49 43 40 45 61 69 85 91 88 93 96 94 91 93 91 89 91 95 98 85 81 62 69 78
77 79 80 81 78 78 76 71 64 62 62 59 60 61 55 47 42 41 51 67 75 88 89 91 96 93 90 93 92 89 90 87 92 85 75 67 76 82
77 83 85 87 83 80 78 75 72 64 63 64 66 68 62 52 46 42 43 55 70 85 91 89 92 95 93 93 90 92 89 86 94 83 65 65 76 91
76 83 86 85 86 83 79 74 76 70 65 68 71 74 72 62 53 47 42 44 61 73 90 90 88 92 95 92 88 91 89 89 90 79 67 58 74 90
75 82 89 88 90 86 79 75 76 73 68 68 75 79 78 72 62 53 46 42 45 66 68 88 89 91 96 95 91 92 93 96 86 80 71 60 52 74
79 84 87 92 96 88 82 78 77 74 71 70 74 80 80 78 72 61 52 45 42 47 68 70 94 93 97 95 92 89 90 90 88 82 74 65 60 63
81 85 89 93 97 93 86 82 79 78 74 73 74 76 78 80 77 70 60 50 45 42 46 76 90 99 98 97 96 93 89 89 89 84 80 73 66 63
81 87 90 93 98 98 92 87 85 83 81 79 76 75 76 78 78 76 68 56 51 45 39 49 83 95 98 97 99 98 96 89 89 89 83 78 74 72
84 88 92 94 99 98 98 96 94 88 85 83 82 77 74 78 81 80 76 65 56 51 42 39 52 84 89 98 97 99 98 98 92 89 89 85 81 78

GFSNE_prec_cthk_051.txt.gz
RH
64 58 60 61 63 63 64 65 61 56 49 46 44 39 32 26 24 23 26 25 25 26 28 29 32 33 35 38 38 39 43 44 44 44 41 35 38 38
64 65 65 63 65 65 62 62 59 56 46 39 31 29 27 25 25 24 26 27 28 29 28 28 30 35 41 42 42 43 44 45 46 45 40 35 35 40
74 69 63 67 69 67 68 61 54 47 38 29 30 28 26 27 27 26 25 25 28 31 34 35 37 42 44 43 43 44 45 45 44 43 41 39 38 39
73 70 71 74 71 69 64 59 42 38 39 34 30 29 29 30 26 24 27 30 35 38 40 40 43 46 47 47 47 47 46 43 39 36 35 37 36 37
78 76 69 69 67 66 57 48 40 43 42 38 34 34 30 29 25 28 32 35 38 37 41 44 49 51 48 48 49 49 48 44 44 43 40 40 40 36
66 60 61 58 55 50 49 46 44 44 44 42 40 35 32 28 28 33 31 37 39 49 52 56 57 57 55 53 50 48 45 44 42 40 40 41 43 44
52 49 45 44 47 52 55 53 48 49 47 46 42 35 33 29 31 34 38 41 49 58 56 63 62 59 55 50 49 46 43 39 37 36 37 41 47 51
39 41 43 48 52 57 62 52 51 52 49 47 42 37 33 31 32 36 44 49 56 66 63 65 60 54 57 56 52 48 47 44 40 37 38 46 53 54
40 42 45 50 55 61 65 55 55 55 51 48 41 37 34 35 33 36 47 54 64 69 66 65 62 58 65 67 57 51 52 53 53 49 46 50 63 65
40 44 46 52 59 64 60 58 60 59 52 45 42 40 38 37 38 40 47 52 60 72 71 68 68 62 65 68 61 56 64 67 66 68 63 61 65 69
45 46 48 55 60 55 56 61 65 60 51 46 46 44 42 43 41 39 43 51 56 72 76 79 73 68 71 73 69 67 74 69 67 66 68 71 73 73
47 50 54 58 61 62 61 65 67 63 51 50 52 48 47 48 47 46 44 48 58 68 83 83 80 85 71 69 74 73 78 75 73 76 81 81 79 78
48 53 59 64 69 69 67 68 69 65 56 54 55 53 49 50 50 46 46 47 55 68 86 89 82 85 90 79 76 82 84 78 86 92 90 88 83 79
49 56 61 67 71 73 71 73 74 70 63 56 57 57 53 54 53 46 45 44 56 65 85 93 88 91 91 83 83 85 84 87 98 97 94 93 91 78
51 57 64 71 78 81 77 80 82 78 73 62 58 60 58 58 58 50 47 43 48 55 78 92 92 91 94 90 88 91 86 86 92 96 93 91 78 80
57 60 66 73 83 86 84 84 86 82 77 71 63 61 63 64 64 58 49 45 39 50 65 92 95 90 90 91 92 91 91 88 90 95 89 82 78 87
64 62 68 76 84 87 87 89 90 84 79 75 68 63 66 69 71 65 57 49 42 42 53 81 91 88 92 93 91 94 95 89 91 94 88 79 75 84
69 62 65 78 85 88 88 90 93 85 78 78 72 66 68 74 77 71 63 56 47 39 48 60 88 88 94 96 93 95 97 98 94 91 85 77 77 91
76 67 66 76 85 88 91 94 93 84 80 79 73 69 70 75 80 76 69 62 51 43 40 52 82 94 95 96 93 94 95 93 91 87 79 81 78 86
72 70 70 77 85 89 91 95 94 86 83 80 76 72 72 75 78 78 72 67 57 47 39 48 73 97 97 98 97 93 91 90 89 86 79 76 75 81
70 69 74 80 86 90 93 95 96 89 85 81 78 75 75 75 77 77 73 72 64 53 44 38 58 90 99 99 99 98 94 92 89 85 80 74 69 70
78 76 83 85 87 91 94 96 98 92 86 86 82 79 79 77 76 78 75 74 71 59 51 41 45 63 94 99 98 99 98 93 89 89 83 78 74 71
80 77 82 86 89 93 94 98 99 96 92 89 88 84 82 80 75 78 79 79 77 68 57 46 41 49 61 90 97 97 98 97 90 88 88 82 79 74

GFSNE_prec_cthk_057.txt.gz
RH
77 72 74 71 65 58 44 35 30 29 26 31 33 32 28 28 28 26 23 21 20 20 20 21 22 23 24 29 29 35 35 36 41 42 45 43 44 45
78 77 72 67 59 42 27 23 27 31 30 38 36 35 34 34 33 29 27 25 24 24 26 27 26 26 27 32 32 33 38 39 40 43 46 46 49 47
78 73 66 56 38 25 23 26 32 35 37 34 38 38 38 39 40 35 30 29 28 28 29 28 27 27 28 30 33 35 37 37 41 45 46 48 49 48
75 64 51 31 23 24 27 30 33 40 43 40 43 44 43 44 40 36 33 32 30 31 30 29 30 32 36 38 39 39 39 42 42 44 47 49 49 53
64 48 29 24 25 28 30 34 38 43 45 46 44 48 45 46 45 41 37 35 35 32 31 32 35 39 44 45 44 44 43 41 41 41 41 43 42 43
40 29 23 25 28 32 34 39 44 48 50 50 50 51 51 49 47 41 40 40 39 36 37 38 36 42 45 46 46 45 45 45 44 41 41 40 39 38
28 24 24 27 31 33 38 45 52 54 53 54 54 56 55 56 49 44 43 42 42 42 43 47 42 47 51 49 47 48 49 49 48 47 43 42 41 39
23 24 26 30 33 37 43 50 54 58 58 58 56 55 56 60 52 47 47 47 44 44 42 38 43 47 55 53 51 51 50 50 50 47 44 44 46 46
22 25 29 32 39 43 51 57 58 57 60 58 49 55 58 62 54 50 51 55 50 46 44 39 42 47 58 57 55 54 56 54 51 51 52 54 56 54
23 27 32 37 45 55 58 61 58 59 56 52 50 57 61 61 55 55 54 55 52 51 48 44 41 43 57 59 59 62 62 59 59 58 58 54 51 45
27 32 39 48 53 61 60 59 59 59 59 57 56 58 61 61 59 57 57 63 55 57 51 51 46 40 56 66 65 70 64 64 63 57 54 49 46 44
32 40 47 54 58 62 59 59 60 62 64 64 62 63 64 66 65 60 59 60 61 58 56 54 47 47 52 69 72 73 68 69 61 57 56 64 73 69
39 41 45 53 60 60 59 62 65 67 66 70 71 72 73 75 76 68 62 61 62 61 62 58 49 48 58 70 76 75 76 73 63 65 65 70 75 77
41 42 44 50 63 64 67 72 76 79 71 74 78 82 82 83 83 73 66 62 65 64 65 62 54 47 53 75 77 73 76 74 75 75 72 76 81 85
45 44 47 56 65 70 77 83 84 82 80 75 81 89 90 91 86 78 68 65 67 65 64 59 53 48 53 77 79 78 75 79 82 79 81 86 88 91
21 34 52 61 67 79 82 99 89 84 85 75 83 92 94 95 88 83 72 69 71 72 67 60 53 41 50 76 82 82 82 85 86 86 86 89 89 89
28 28 30 52 77 65 91 92 93 85 83 79 84 92 95 98 89 84 74 73 74 78 76 65 56 47 45 75 87 89 92 91 93 92 89 88 88 91
23 27 35 37 66 88 92 91 88 80 82 79 85 93 96 98 90 84 76 74 75 79 76 69 58 52 51 78 93 94 94 91 92 91 90 87 89 94
27 30 40 42 53 87 90 87 85 81 81 82 88 94 96 96 88 84 77 75 77 78 74 69 61 55 54 73 95 96 96 93 93 92 88 88 88 90
41 46 60 72 80 84 87 85 85 83 81 86 92 96 96 93 88 81 78 76 78 79 73 70 65 58 55 63 88 97 97 96 93 90 88 87 89 87
57 61 69 80 83 87 81 81 83 88 87 90 94 96 97 93 89 82 80 78 78 78 77 73 67 56 54 57 74 94 99 98 96 91 89 89 89 90
64 74 78 80 83 83 84 84 85 89 90 92 95 96 97 93 89 85 81 81 81 81 79 75 70 60 54 55 60 78 99 99 99 94 90 91 88 88
64 72 79 86 87 84 85 85 82 86 91 94 96 98 98 94 92 90 85 81 78 81 81 79 75 66 57 52 53 59 78 99 99 98 91 90 88 85

GFSNE_prec_cthk_060.txt.gz
RH
88 84 81 80 77 71 59 47 36 26 27 29 33 40 40 36 34 32 29 27 22 21 22 21 22 22 24 27 32 32 32 35 36 38 44 44 44 43
91 85 86 78 73 61 44 33 28 27 29 33 35 41 43 40 41 38 32 29 27 25 24 23 24 26 27 26 26 29 32 32 33 37 37 39 42 43
93 88 80 73 66 50 38 29 28 29 33 30 41 47 48 47 47 45 40 34 31 29 28 25 27 28 27 27 28 31 37 38 38 40 43 42 45 46
90 84 76 70 59 44 33 30 30 34 39 39 45 49 57 60 55 49 42 41 35 33 28 27 28 28 28 30 33 37 41 38 38 40 41 43 44 47
84 81 71 65 49 37 32 34 35 39 42 48 47 54 61 65 55 52 49 44 42 38 32 32 34 32 30 32 37 41 43 41 41 39 37 36 38 39
83 69 58 47 42 31 35 38 40 43 47 52 53 57 66 65 60 54 53 50 43 43 38 39 41 40 37 36 42 44 42 42 41 44 45 43 40 37
70 57 48 37 26 26 31 35 43 48 52 56 57 59 61 64 61 60 57 50 48 48 46 48 49 47 47 46 51 54 50 46 46 45 43 42 42 41
52 41 39 39 32 27 29 34 40 50 54 58 58 61 62 65 62 60 60 55 52 53 50 50 50 50 49 51 56 53 51 51 53 50 47 44 43 43
40 38 39 41 41 39 43 43 45 49 53 59 58 60 63 63 63 63 62 63 58 55 54 53 54 54 55 52 55 55 55 58 56 55 53 51 50 51
31 36 36 37 46 53 53 57 59 58 57 55 54 59 64 66 68 66 65 67 65 59 61 57 58 57 59 52 51 57 61 64 62 61 58 54 54 50
32 37 38 40 45 48 52 56 57 59 64 59 65 65 65 68 65 69 72 72 69 65 67 63 63 59 57 51 61 70 67 67 67 65 61 57 54 52
31 34 35 36 34 42 52 58 67 63 73 72 66 67 72 71 67 70 78 78 73 68 71 69 68 62 57 52 61 67 72 74 70 68 64 60 62 65
28 28 32 35 40 41 53 63 64 70 74 79 85 85 85 78 79 79 84 84 79 71 73 71 71 67 61 55 56 70 74 76 73 70 72 69 70 71
17 17 18 24 33 42 49 54 64 74 81 88 90 91 90 84 86 89 92 89 82 72 72 74 75 71 62 56 55 71 75 76 75 76 74 70 69 71
14 15 15 17 17 27 47 71 63 83 95 93 98 93 93 87 88 94 97 93 86 75 70 70 75 72 65 58 54 70 78 79 80 80 76 72 73 79
17 18 20 19 19 21 25 44 76 79 79 90 94 92 95 87 89 96 97 96 86 77 76 74 74 67 64 59 55 74 84 83 84 85 81 76 81 87
19 21 24 30 32 35 41 44 75 83 89 90 92 89 88 86 91 97 99 96 86 78 78 81 80 70 62 56 57 79 88 88 82 81 82 79 83 91
25 33 34 35 39 49 51 56 74 88 84 87 84 84 85 86 93 97 99 94 86 79 79 82 81 72 68 65 62 79 94 91 85 82 84 81 84 93
33 39 39 42 51 59 55 56 74 88 84 85 84 85 85 90 96 97 98 91 85 80 80 82 79 72 70 65 63 73 94 94 91 85 83 82 84 90
33 44 50 56 67 72 79 80 77 83 83 82 86 85 89 94 97 97 97 90 83 81 81 82 78 74 72 65 59 66 88 95 94 87 83 82 84 86
27 39 51 65 72 77 86 88 87 86 83 85 90 90 93 96 97 98 95 89 82 83 83 84 80 72 64 63 58 65 74 95 95 93 84 84 87 92
28 31 45 61 76 84 88 89 90 89 88 92 93 92 95 98 98 99 95 88 82 82 85 86 79 77 74 70 62 59 63 79 96 95 90 86 87 87
31 32 36 55 73 84 89 91 92 90 90 93 91 94 98 99 99 98 95 90 86 85 84 88 86 80 77 73 64 60 59 61 84 98 98 89 86 87

GFSNE_prec_cthk_063.txt.gz
RH
95 95 91 89 87 84 82 75 66 57 51 44 40 42 41 43 40 36 34 36 36 31 26 21 19 19 21 21 21 25 33 33 38 40 43 46 45 45
96 95 90 89 86 82 78 72 65 54 47 42 37 37 38 40 42 38 39 40 39 37 29 25 23 23 23 22 26 27 32 35 36 42 42 45 44 45
98 94 90 88 87 85 80 73 62 51 42 35 36 36 40 49 50 51 49 48 47 42 34 29 26 27 24 26 28 28 28 34 39 44 46 45 46 48
94 91 85 89 89 85 78 63 47 43 40 37 35 41 47 52 52 54 53 50 50 48 40 34 29 29 27 30 31 31 29 34 41 40 43 44 45 46
80 84 92 93 89 74 53 47 43 41 43 46 43 45 52 56 58 59 57 57 54 48 42 39 36 37 35 35 36 37 36 38 38 39 40 39 38 43
91 95 88 79 65 50 47 45 42 42 47 51 51 51 56 58 66 65 65 62 59 54 49 49 45 44 43 43 44 42 40 45 43 40 40 42 40 39
86 78 63 54 48 43 41 36 37 41 46 51 54 57 57 60 64 65 70 70 59 60 55 58 56 53 47 49 53 53 46 47 47 46 45 45 43 40
61 51 49 49 47 47 48 42 38 38 40 48 49 56 60 61 63 71 72 71 64 67 68 65 63 56 57 58 59 52 46 46 47 48 51 49 45 42
42 43 42 42 44 44 44 44 46 47 52 53 57 56 64 67 69 71 75 73 72 69 73 64 66 63 63 61 61 54 46 44 48 52 53 52 49 46
37 40 41 39 37 40 42 42 51 59 67 72 74 66 68 64 70 79 78 75 71 71 80 74 74 68 66 60 57 55 50 49 52 57 58 55 54 51
35 33 34 34 31 31 35 40 41 46 59 82 84 80 80 68 76 86 84 85 72 78 87 85 78 70 70 62 64 61 53 55 61 62 60 60 61 57
29 28 25 26 27 31 33 35 39 49 56 72 87 86 85 72 82 87 87 83 81 82 88 90 83 75 68 69 72 63 58 57 62 64 64 66 70 65
20 18 19 21 19 18 19 26 31 36 50 59 66 80 79 79 84 86 82 80 83 89 92 92 81 74 74 70 66 62 63 63 70 70 71 83 79 70
20 17 14 12 12 11 13 13 15 22 43 54 67 73 85 93 98 95 86 83 83 93 96 92 79 75 74 75 65 60 60 62 70 74 82 84 75 68
17 13 11 9 9 13 15 17 19 22 28 48 78 75 95 95 93 90 92 91 88 95 99 90 78 75 78 77 65 60 59 65 77 86 88 80 73 70
15 12 13 17 22 25 31 36 36 34 29 34 62 77 86 89 88 86 88 87 89 95 95 86 78 76 80 76 66 60 59 70 83 91 82 79 77 76
15 18 25 27 30 33 43 47 46 58 47 53 78 88 92 92 90 88 86 87 91 97 96 89 84 81 82 74 66 64 59 73 92 86 77 76 79 84
18 24 22 29 35 38 38 48 61 68 62 73 82 87 88 86 86 88 86 89 96 98 95 88 86 86 84 74 76 69 63 74 90 89 84 79 77 79
23 24 26 28 36 47 54 60 65 80 82 80 88 86 85 88 88 86 89 94 97 98 93 88 86 87 84 78 75 68 61 69 87 91 89 80 76 77
27 28 27 26 32 44 60 71 79 87 88 86 86 91 89 88 88 89 92 97 98 98 91 87 86 86 84 78 69 57 59 62 78 91 90 81 77 83
31 30 30 30 29 36 52 69 79 86 89 95 93 88 86 91 92 93 96 98 98 96 91 87 86 85 79 71 66 62 66 62 66 86 91 87 81 86
29 30 32 32 32 32 42 65 81 89 94 99 99 91 91 94 94 96 98 99 99 95 85 86 89 86 81 81 77 72 65 62 56 69 92 93 85 82
30 31 32 34 35 36 38 54 83 90 94 99 98 88 96 97 96 99 99 99 99 94 87 85 87 87 87 83 78 71 65 62 61 63 77 96 89 81